TimeEST,TemperatureF,Dew PointF,Humidity,Sea Level PressureIn,VisibilityMPH,Wind Direction,Wind SpeedMPH,Gust SpeedMPH,PrecipitationIn,Events,Conditions,WindDirDegrees,DateUTC
12:15 AM,24.8,21.2,86,29.80,6.0,West,4.6,-,N/A,,Overcast,270,2013-02-14 05:15:00
12:35 AM,24.8,19.4,80,29.80,6.0,West,4.6,-,N/A,,Scattered Clouds,270,2013-02-14 05:35:00
12:55 AM,23.0,19.4,86,29.80,5.0,WSW,3.5,-,N/A,,Partly Cloudy,250,2013-02-14 05:55:00
1:15 AM,23.0,19.4,86,29.81,5.0,WSW,4.6,-,N/A,,Partly Cloudy,240,2013-02-14 06:15:00
1:35 AM,23.0,19.4,86,29.81,5.0,Calm,Calm,-,N/A,,Mostly Cloudy,0,2013-02-14 06:35:00
1:55 AM,23.0,19.4,86,29.82,5.0,SW,3.5,-,N/A,,Scattered Clouds,230,2013-02-14 06:55:00
2:15 AM,21.2,19.4,93,29.82,4.0,SW,3.5,-,N/A,,Clear,220,2013-02-14 07:15:00
2:35 AM,21.2,19.4,93,29.83,4.0,SW,3.5,-,N/A,,Clear,220,2013-02-14 07:35:00
2:55 AM,21.2,17.6,86,29.83,4.0,Calm,Calm,-,N/A,,Partly Cloudy,0,2013-02-14 07:55:00
3:15 AM,21.2,19.4,93,29.82,4.0,Calm,Calm,-,N/A,,Scattered Clouds,0,2013-02-14 08:15:00
3:35 AM,21.2,17.6,86,29.83,5.0,South,4.6,-,N/A,,Partly Cloudy,190,2013-02-14 08:35:00
3:55 AM,19.4,17.6,93,29.83,5.0,South,5.8,-,N/A,,Clear,190,2013-02-14 08:55:00
4:15 AM,19.4,17.6,93,29.83,4.0,South,5.8,-,N/A,,Partly Cloudy,180,2013-02-14 09:15:00
4:35 AM,21.2,19.4,93,29.83,5.0,South,6.9,-,N/A,,Mostly Cloudy,180,2013-02-14 09:35:00
4:55 AM,21.2,19.4,93,29.84,4.0,South,5.8,-,N/A,,Overcast,170,2013-02-14 09:55:00
5:15 AM,21.2,19.4,93,29.85,4.0,South,5.8,-,N/A,,Overcast,180,2013-02-14 10:15:00
5:35 AM,23.0,21.2,93,29.85,3.0,South,10.4,-,N/A,,Overcast,190,2013-02-14 10:35:00
5:55 AM,24.8,21.2,86,29.86,3.0,South,11.5,-,N/A,,Overcast,180,2013-02-14 10:55:00
6:15 AM,24.8,21.2,86,29.86,3.0,South,9.2,-,N/A,,Overcast,180,2013-02-14 11:15:00
6:35 AM,24.8,21.2,86,29.86,3.0,South,10.4,-,N/A,,Overcast,170,2013-02-14 11:35:00
6:55 AM,24.8,21.2,86,29.87,3.0,South,10.4,-,N/A,,Overcast,170,2013-02-14 11:55:00
7:15 AM,24.8,21.2,86,29.87,3.0,SSE,10.4,-,N/A,,Overcast,160,2013-02-14 12:15:00
7:35 AM,24.8,23.0,93,29.88,2.0,South,10.4,16.1,N/A,,Overcast,170,2013-02-14 12:35:00
7:55 AM,26.6,24.8,93,29.88,2.0,South,8.1,-,N/A,,Overcast,180,2013-02-14 12:55:00
8:15 AM,26.6,24.8,93,29.88,2.0,South,9.2,-,N/A,,Overcast,170,2013-02-14 13:15:00
8:35 AM,26.6,24.8,93,29.88,1.8,South,9.2,-,N/A,,Overcast,170,2013-02-14 13:35:00
8:55 AM,26.6,24.8,93,29.88,1.8,South,10.4,-,N/A,,Overcast,170,2013-02-14 13:55:00
9:15 AM,26.6,24.8,93,29.88,1.8,South,9.2,-,N/A,,Overcast,170,2013-02-14 14:15:00
9:35 AM,28.4,26.6,93,29.87,2.0,South,9.2,-,N/A,,Overcast,170,2013-02-14 14:35:00
9:55 AM,28.4,26.6,93,29.87,2.5,South,11.5,-,N/A,,Overcast,180,2013-02-14 14:55:00
10:15 AM,28.4,26.6,93,29.87,2.5,South,11.5,-,N/A,,Overcast,180,2013-02-14 15:15:00
10:35 AM,30.2,26.6,86,29.87,3.0,South,11.5,-,N/A,,Overcast,180,2013-02-14 15:35:00
10:55 AM,30.2,28.4,93,29.86,3.0,South,10.4,-,N/A,,Overcast,170,2013-02-14 15:55:00
11:15 AM,30.2,28.4,93,29.87,3.0,South,12.7,16.1,N/A,,Overcast,180,2013-02-14 16:15:00
11:35 AM,30.2,28.4,93,29.87,3.0,South,10.4,16.1,N/A,,Overcast,190,2013-02-14 16:35:00
11:55 AM,32.0,28.4,87,29.86,4.0,South,12.7,-,N/A,,Overcast,190,2013-02-14 16:55:00
12:15 PM,32.0,28.4,87,29.86,5.0,SSW,11.5,18.4,N/A,,Overcast,200,2013-02-14 17:15:00
12:35 PM,33.8,28.4,81,29.86,5.0,SSW,13.8,-,N/A,,Overcast,200,2013-02-14 17:35:00
12:55 PM,33.8,30.2,87,29.85,5.0,South,11.5,-,N/A,,Overcast,180,2013-02-14 17:55:00
1:15 PM,33.8,28.4,81,29.84,7.0,South,10.4,16.1,N/A,,Overcast,180,2013-02-14 18:15:00
1:35 PM,33.8,28.4,81,29.84,7.0,South,10.4,-,N/A,,Overcast,180,2013-02-14 18:35:00
1:55 PM,33.8,30.2,87,29.83,5.0,South,11.5,17.3,N/A,,Overcast,180,2013-02-14 18:55:00
2:15 PM,33.8,30.2,87,29.83,5.0,South,10.4,17.3,N/A,,Overcast,190,2013-02-14 19:15:00
2:35 PM,33.8,30.2,87,29.82,5.0,South,12.7,19.6,N/A,,Overcast,170,2013-02-14 19:35:00
2:55 PM,33.8,30.2,87,29.82,4.0,South,10.4,-,N/A,,Overcast,170,2013-02-14 19:55:00
3:15 PM,33.8,30.2,87,29.82,3.0,South,10.4,-,N/A,,Overcast,180,2013-02-14 20:15:00
3:35 PM,33.8,30.2,87,29.82,4.0,South,10.4,-,N/A,,Overcast,180,2013-02-14 20:35:00
3:55 PM,33.8,30.2,87,29.81,3.0,South,10.4,-,N/A,,Overcast,180,2013-02-14 20:55:00
4:15 PM,33.8,32.0,93,29.81,5.0,South,11.5,-,N/A,,Overcast,170,2013-02-14 21:15:00
4:35 PM,33.8,32.0,93,29.81,5.0,South,12.7,19.6,N/A,,Overcast,180,2013-02-14 21:35:00
4:55 PM,33.8,32.0,93,29.81,5.0,South,13.8,18.4,N/A,,Overcast,180,2013-02-14 21:55:00
5:15 PM,33.8,30.2,87,29.81,8.0,South,11.5,-,N/A,,Overcast,180,2013-02-14 22:15:00
5:35 PM,33.8,30.2,87,29.82,7.0,SSW,13.8,-,N/A,,Overcast,200,2013-02-14 22:35:00
5:55 PM,33.8,32.0,93,29.82,7.0,South,10.4,-,N/A,,Overcast,190,2013-02-14 22:55:00
6:15 PM,33.8,30.2,87,29.82,5.0,South,11.5,16.1,N/A,,Overcast,190,2013-02-14 23:15:00
6:35 PM,33.8,30.2,87,29.83,5.0,South,11.5,-,0.01,,Overcast,190,2013-02-14 23:35:00
6:55 PM,33.8,30.2,87,29.83,4.0,South,10.4,-,0.02,,Overcast,180,2013-02-14 23:55:00
7:15 PM,33.8,30.2,87,29.83,4.0,South,11.5,-,N/A,,Overcast,190,2013-02-15 00:15:00
7:35 PM,33.8,32.0,93,29.84,5.0,South,10.4,-,0.01,,Overcast,190,2013-02-15 00:35:00
7:55 PM,33.8,30.2,87,29.85,4.0,SSW,6.9,-,0.02,,Overcast,200,2013-02-15 00:55:00
8:15 PM,33.8,32.0,93,29.83,6.0,South,8.1,-,N/A,,Overcast,180,2013-02-15 01:15:00
8:35 PM,33.8,32.0,93,29.83,8.0,South,6.9,-,N/A,,Overcast,170,2013-02-15 01:35:00
8:55 PM,33.8,32.0,93,29.82,7.0,South,8.1,-,N/A,,Mostly Cloudy,170,2013-02-15 01:55:00
9:15 PM,33.8,32.0,93,29.82,8.0,South,11.5,-,N/A,,Overcast,170,2013-02-15 02:15:00
9:35 PM,35.6,32.0,87,29.82,10.0,South,11.5,-,N/A,,Overcast,170,2013-02-15 02:35:00
9:55 PM,35.6,32.0,87,29.81,10.0,South,13.8,-,N/A,,Overcast,180,2013-02-15 02:55:00
10:15 PM,35.6,32.0,87,29.82,7.0,SW,8.1,-,N/A,,Overcast,220,2013-02-15 03:15:00
10:35 PM,35.6,32.0,87,29.82,10.0,SW,6.9,-,0.02,,Overcast,220,2013-02-15 03:35:00
10:55 PM,35.6,33.8,93,29.82,10.0,SW,9.2,-,0.02,,Mostly Cloudy,230,2013-02-15 03:55:00
11:15 PM,35.6,33.8,93,29.83,10.0,SW,11.5,16.1,N/A,,Overcast,230,2013-02-15 04:15:00
11:35 PM,35.6,33.8,93,29.83,10.0,WSW,15.0,21.9,N/A,,Overcast,240,2013-02-15 04:35:00
11:55 PM,37.4,32.0,81,29.83,10.0,WSW,11.5,18.4,N/A,,Overcast,250,2013-02-15 04:55:00